Wainwright, AK

3:20 AM AKDT on September 21, 2017 (GMT -0800)
Wainwright

Weather History for PAWI - September, 2013

Change the Weather History Date:

Thursday, September 5, 2013

  Actual Average (PABR) Record (PABR)
Temperature  
Mean Temperature 35 °F -  
Max Temperature 39 °F 37 °F 61 °F (2006)
Min Temperature 33 °F 30 °F 20 °F (1983)
Degree Days  
Heating Degree Days 30    
Moisture  
Dew Point 32 °F    
Average Humidity 87    
Maximum Humidity 93    
Minimum Humidity 79    
Precipitation  
Precipitation 0.00 in - - ()
Sea Level Pressure  
Sea Level Pressure 29.73 in    
Wind  
Wind Speed 15 mph (NE)    
Max Wind Speed 20 mph    
Max Gust Speed 25 mph    
Visibility 8 miles    
Events Snow    
Averages and records for this station are not official NWS values.
T = Trace of Precipitation, MM = Missing Value Source: NWS Daily Summary

Daily Weather History Graph

Daily Weather History Graph

Search for Another Location

Airport or City:

Trip Planner

Search our weather history database for the weather conditions in past years. The results will help you decide how hot, cold, wet, or windy it might be!

Date:

Astronomy

Sep. 05, 2013 Rise Set
Actual Time 7:10 AM AKDT 10:03 PM AKDT
Civil Twilight 5:57 AM AKDT 11:15 PM AKDT
Nautical Twilight 3:41 AM AKDT 1:22 AM AKDT
Astronomical Twilight Sun does not set Sun does not set
Moon 8:19 AM AKDT (9/5) 8:58 PM AKDT (9/5)
Length of Visible Light 17h 18m
Length of Day
14h 52m
New Moon, 0% of the Moon is Illuminated
Sep 5
New Moon
Sep 12
First Quarter
Sep 19
Full
Sep 26
Last Quarter
Oct 4
New

Hourly Weather History & Observations

Time (AKDT) Temp. Windchill Dew Point Humidity Pressure Visibility Wind Dir Wind Speed Gust Speed Precip Events Conditions
12:53 AM 35.1 °F 26.4 °F 30.9 °F 85% 29.70 in 10.0 mi NE 12.7 mph - N/A   Overcast
1:53 AM 35.1 °F 25.2 °F 30.9 °F 85% 29.72 in 10.0 mi NE 16.1 mph - N/A   Overcast
2:53 AM 34.0 °F 23.4 °F 30.0 °F 85% 29.72 in 10.0 mi NE 17.3 mph 23.0 mph N/A   Overcast
3:44 AM 33.8 °F 24.3 °F 30.2 °F 87% 29.72 in 10.0 mi NE 13.8 mph - N/A   Overcast
3:53 AM 34.0 °F 23.4 °F 30.0 °F 85% 29.72 in 10.0 mi ENE 17.3 mph - N/A   Overcast
4:09 AM 33.8 °F 23.2 °F 30.2 °F 87% 29.72 in 10.0 mi ENE 17.3 mph - N/A   Overcast
4:50 AM 33.8 °F 23.2 °F 30.2 °F 87% 29.72 in 10.0 mi ENE 17.3 mph - N/A   Overcast
4:53 AM 34.0 °F 23.8 °F 30.0 °F 85% 29.73 in 10.0 mi ENE 16.1 mph - N/A   Overcast
5:19 AM 33.8 °F 24.3 °F 28.4 °F 81% 29.72 in 10.0 mi NE 13.8 mph 21.9 mph N/A   Mostly Cloudy
5:29 AM 33.8 °F 24.3 °F 30.2 °F 87% 29.72 in 10.0 mi ENE 13.8 mph - N/A   Mostly Cloudy
5:53 AM 34.0 °F 23.8 °F 28.9 °F 82% 29.72 in 10.0 mi ENE 16.1 mph 23.0 mph N/A   Overcast
6:53 AM 33.1 °F 21.9 °F 28.9 °F 85% 29.72 in 10.0 mi ENE 18.4 mph 24.2 mph N/A   Overcast
7:53 AM 33.1 °F 22.6 °F 28.9 °F 85% 29.73 in 10.0 mi ENE 16.1 mph - N/A   Overcast
8:53 AM 34.0 °F 23.8 °F 28.9 °F 82% 29.73 in 10.0 mi ENE 16.1 mph - N/A   Overcast
9:53 AM 34.0 °F 23.4 °F 28.9 °F 82% 29.74 in 10.0 mi ENE 17.3 mph - N/A   Overcast
10:53 AM 35.1 °F 25.5 °F 30.9 °F 85% 29.74 in 5.0 mi ENE 15.0 mph - 0.00 in Snow Light Snow
11:53 AM 36.0 °F 26.3 °F 32.0 °F 86% 29.74 in 10.0 mi ENE 16.1 mph - 0.00 in   Overcast
12:53 PM 37.0 °F 27.7 °F 32.0 °F 82% 29.74 in 10.0 mi ENE 16.1 mph - N/A   Overcast
1:53 PM 37.0 °F 27.4 °F 32.0 °F 82% 29.73 in 10.0 mi ENE 17.3 mph 25.3 mph N/A   Overcast
3:53 PM 37.9 °F 27.9 °F 32.0 °F 79% 29.74 in 10.0 mi ENE 19.6 mph - N/A   Overcast
4:53 PM 37.9 °F 28.5 °F 33.1 °F 83% 29.74 in 10.0 mi ENE 17.3 mph - N/A   Overcast
5:53 PM 37.9 °F 28.2 °F 34.0 °F 86% 29.73 in 10.0 mi ENE 18.4 mph - N/A   Overcast
6:40 PM 37.4 °F 29.3 °F 35.6 °F 93% 29.73 in 10.0 mi ENE 12.7 mph - 0.00 in   Overcast
6:53 PM 37.9 °F 28.9 °F 35.1 °F 89% 29.74 in 10.0 mi ENE 16.1 mph 20.7 mph 0.00 in   Overcast
7:03 PM 37.4 °F 28.9 °F 33.8 °F 87% 29.73 in 10.0 mi ENE 13.8 mph - N/A   Overcast
7:22 PM 37.4 °F 28.5 °F 33.8 °F 87% 29.73 in 10.0 mi NE 15.0 mph - N/A   Overcast
7:33 PM 37.4 °F 28.5 °F 33.8 °F 87% 29.73 in 10.0 mi NE 15.0 mph - N/A   Overcast
7:51 PM 37.4 °F 28.2 °F 33.8 °F 87% 29.73 in 10.0 mi ENE 16.1 mph - N/A   Overcast
7:53 PM 37.0 °F 28.5 °F 34.0 °F 89% 29.73 in 10.0 mi ENE 13.8 mph - N/A   Overcast
8:53 PM 37.0 °F 28.9 °F 34.0 °F 89% 29.73 in 10.0 mi ENE 12.7 mph - 0.00 in   Overcast
9:00 PM 37.4 °F 27.8 °F 33.8 °F 87% 29.73 in 10.0 mi ENE 17.3 mph 21.9 mph N/A   Overcast
9:14 PM 37.4 °F 28.2 °F 33.8 °F 87% 29.73 in 10.0 mi NE 16.1 mph - N/A   Overcast
9:34 PM 35.6 °F 28.0 °F 33.8 °F 93% 29.73 in 2.5 mi NE 10.4 mph - N/A   Overcast
9:38 PM 35.6 °F 27.5 °F 33.8 °F 93% 29.73 in 1.8 mi NE 11.5 mph - N/A   Overcast
9:53 PM 36.0 °F 28.0 °F 34.0 °F 93% 29.73 in 1.5 mi NE 11.5 mph - N/A   Overcast
10:16 PM 35.6 °F 27.5 °F 33.8 °F 93% 29.73 in 2.0 mi NE 11.5 mph - N/A   Overcast
10:28 PM 35.6 °F 27.1 °F 33.8 °F 93% 29.73 in 4.0 mi NE 12.7 mph - N/A   Overcast
10:53 PM 36.0 °F 28.5 °F 34.0 °F 93% 29.74 in 2.0 mi NE 10.4 mph - N/A   Overcast
11:35 PM 35.6 °F 28.6 °F 33.8 °F 93% 29.74 in 2.5 mi NE 9.2 mph - N/A   Overcast
11:53 PM 36.0 °F 31.1 °F 34.0 °F 93% 29.75 in 2.5 mi NE 5.8 mph - N/A   Overcast